Time,TemperatureF,DewpointF,PressureIn,WindDirection,WindDirectionDegrees,WindSpeedMPH,WindSpeedGustMPH,Humidity,HourlyPrecipIn,Conditions,Clouds,dailyrainin,SoftwareType,DateUTC
2013-03-10 00:01:00,41.0,33.0,29.97,SE,131,1.0,-999.0,73,-99.99,,,-99.99,,2013-03-10 05:01:00,
2013-03-10 00:11:00,41.0,33.0,29.97,SE,131,1.0,-999.0,73,-99.99,,,-99.99,,2013-03-10 05:11:00,
2013-03-10 00:22:00,42.0,34.0,29.96,SE,136,2.0,-999.0,72,-99.99,,,-99.99,,2013-03-10 05:22:00,
2013-03-10 00:31:00,42.0,34.0,29.96,SE,145,2.0,-999.0,72,-99.99,,,-99.99,,2013-03-10 05:31:00,
2013-03-10 00:42:00,43.0,34.0,29.95,SE,137,2.0,-999.0,70,-99.99,,,-99.99,,2013-03-10 05:42:00,
2013-03-10 00:52:00,43.0,34.0,29.95,SE,137,2.0,-999.0,70,-99.99,,,-99.99,,2013-03-10 05:52:00,
2013-03-10 01:01:00,42.0,33.0,29.95,SE,138,1.0,-999.0,70,-99.99,,,-99.99,,2013-03-10 06:01:00,
2013-03-10 01:11:00,42.0,33.0,29.94,SE,136,1.0,-999.0,70,-99.99,,,-99.99,,2013-03-10 06:11:00,
2013-03-10 01:22:00,42.0,33.0,29.94,SE,136,1.0,-999.0,70,-99.99,,,-99.99,,2013-03-10 06:22:00,
2013-03-10 01:32:00,42.0,33.0,29.94,ESE,123,1.0,-999.0,70,-99.99,,,-99.99,,2013-03-10 06:32:00,
2013-03-10 01:42:00,43.0,34.0,29.94,SE,126,1.0,-999.0,70,-99.99,,,-99.99,,2013-03-10 06:42:00,
2013-03-10 01:52:00,43.0,34.0,29.94,SE,126,1.0,-999.0,70,-99.99,,,-99.99,,2013-03-10 06:52:00,
2013-03-10 03:01:00,43.0,34.0,29.93,SE,137,1.0,-999.0,69,-99.99,,,-99.99,,2013-03-10 07:01:00,
2013-03-10 03:11:00,43.0,33.0,29.93,SE,141,2.0,-999.0,68,-99.99,,,-99.99,,2013-03-10 07:11:00,
2013-03-10 03:21:00,43.0,33.0,29.93,SE,141,2.0,-999.0,68,-99.99,,,-99.99,,2013-03-10 07:21:00,
2013-03-10 03:31:00,44.0,34.0,29.92,SSE,151,2.0,-999.0,67,-99.99,,,-99.99,,2013-03-10 07:31:00,
2013-03-10 03:42:00,45.0,34.0,29.92,SE,145,2.0,-999.0,65,-99.99,,,-99.99,,2013-03-10 07:42:00,
2013-03-10 03:52:00,45.0,34.0,29.92,SE,145,2.0,-999.0,65,-99.99,,,-99.99,,2013-03-10 07:52:00,
2013-03-10 04:01:00,45.0,34.0,29.91,SE,144,2.0,-999.0,65,-99.99,,,-99.99,,2013-03-10 08:01:00,
2013-03-10 04:11:00,45.0,34.0,29.91,SE,140,2.0,-999.0,64,-99.99,,,-99.99,,2013-03-10 08:11:00,
2013-03-10 04:21:00,45.0,34.0,29.91,SE,140,2.0,-999.0,64,-99.99,,,-99.99,,2013-03-10 08:21:00,
2013-03-10 04:31:00,45.0,34.0,29.90,SE,126,2.0,-999.0,64,-99.99,,,-99.99,,2013-03-10 08:31:00,
2013-03-10 04:42:00,45.0,34.0,29.90,SE,128,1.0,-999.0,64,-99.99,,,-99.99,,2013-03-10 08:42:00,
2013-03-10 04:52:00,45.0,34.0,29.90,SE,128,1.0,-999.0,64,-99.99,,,-99.99,,2013-03-10 08:52:00,
2013-03-10 05:01:00,45.0,34.0,29.90,SE,130,1.0,-999.0,64,-99.99,,,-99.99,,2013-03-10 09:01:00,
2013-03-10 05:11:00,45.0,34.0,29.90,SE,130,1.0,-999.0,64,-99.99,,,-99.99,,2013-03-10 09:11:00,
2013-03-10 05:21:00,45.0,34.0,29.91,SE,130,0.0,-999.0,65,-99.99,,,-99.99,,2013-03-10 09:21:00,
2013-03-10 05:31:00,44.0,34.0,29.92,SE,130,0.0,-999.0,69,-99.99,,,-99.99,,2013-03-10 09:31:00,
2013-03-10 05:41:00,44.0,34.0,29.92,SE,130,0.0,-999.0,69,-99.99,,,-99.99,,2013-03-10 09:41:00,
2013-03-10 05:52:00,43.0,35.0,29.92,SE,130,0.0,-999.0,73,-99.99,,,-99.99,,2013-03-10 09:52:00,
2013-03-10 06:01:00,43.0,36.0,29.93,SE,130,0.0,-999.0,77,-99.99,,,-99.99,,2013-03-10 10:01:00,
2013-03-10 06:11:00,43.0,36.0,29.93,SE,130,0.0,-999.0,77,-99.99,,,-99.99,,2013-03-10 10:11:00,
2013-03-10 06:21:00,42.0,37.0,29.92,SE,130,0.0,-999.0,82,-99.99,,,-99.99,,2013-03-10 10:21:00,
2013-03-10 06:32:00,41.0,37.0,29.91,SE,130,0.0,-999.0,85,-99.99,,,-99.99,,2013-03-10 10:32:00,
2013-03-10 06:41:00,41.0,37.0,29.91,SE,130,0.0,-999.0,87,-99.99,,,-99.99,,2013-03-10 10:41:00,
2013-03-10 06:52:00,41.0,37.0,29.91,SE,130,0.0,-999.0,87,-99.99,,,-99.99,,2013-03-10 10:52:00,
2013-03-10 07:01:00,41.0,38.0,29.92,SE,130,0.0,-999.0,88,-99.99,,,-99.99,,2013-03-10 11:01:00,
2013-03-10 07:12:00,42.0,39.0,29.92,SE,130,0.0,-999.0,88,-99.99,,,-99.99,,2013-03-10 11:12:00,
2013-03-10 07:21:00,42.0,39.0,29.92,SE,130,0.0,-999.0,88,-99.99,,,-99.99,,2013-03-10 11:21:00,
2013-03-10 07:31:00,41.0,38.0,29.92,SE,128,0.0,-999.0,88,-99.99,,,-99.99,,2013-03-10 11:31:00,
2013-03-10 07:42:00,41.0,38.0,29.92,SE,128,0.0,-999.0,88,-99.99,,,-99.99,,2013-03-10 11:42:00,
2013-03-10 07:52:00,41.0,38.0,29.91,SE,130,0.0,-999.0,89,-99.99,,,-99.99,,2013-03-10 11:52:00,
2013-03-10 08:01:00,42.0,38.0,29.91,SE,128,0.0,-999.0,87,-99.99,,,-99.99,,2013-03-10 12:01:00,
2013-03-10 08:11:00,42.0,38.0,29.91,SE,128,0.0,-999.0,87,-99.99,,,-99.99,,2013-03-10 12:11:00,
2013-03-10 08:21:00,43.0,38.0,29.90,SE,128,1.0,-999.0,83,-99.99,,,-99.99,,2013-03-10 12:21:00,
2013-03-10 08:31:00,43.0,37.0,29.91,SSE,155,2.0,-999.0,79,-99.99,,,-99.99,,2013-03-10 12:31:00,
2013-03-10 08:42:00,43.0,37.0,29.91,SSE,155,2.0,-999.0,79,-99.99,,,-99.99,,2013-03-10 12:42:00,
2013-03-10 08:52:00,43.0,37.0,29.91,SE,144,2.0,-999.0,79,-99.99,,,-99.99,,2013-03-10 12:52:00,
2013-03-10 09:01:00,44.0,37.0,29.91,SE,144,1.0,-999.0,77,-99.99,,,-99.99,,2013-03-10 13:01:00,
2013-03-10 09:11:00,44.0,37.0,29.91,SE,144,1.0,-999.0,77,-99.99,,,-99.99,,2013-03-10 13:11:00,
2013-03-10 09:21:00,44.0,37.0,29.90,SE,143,1.0,-999.0,76,-99.99,,,-99.99,,2013-03-10 13:21:00,
2013-03-10 09:31:00,44.0,37.0,29.88,SE,140,1.0,-999.0,76,-99.99,,,-99.99,,2013-03-10 13:31:00,
2013-03-10 09:41:00,44.0,37.0,29.88,SE,140,1.0,-999.0,76,-99.99,,,-99.99,,2013-03-10 13:41:00,
2013-03-10 09:52:00,44.0,37.0,29.89,SE,140,1.0,-999.0,76,-99.99,,,-99.99,,2013-03-10 13:52:00,
2013-03-10 10:01:00,45.0,37.0,29.89,SE,140,1.0,-999.0,74,-99.99,,,-99.99,,2013-03-10 14:01:00,
2013-03-10 10:11:00,45.0,37.0,29.89,SE,140,1.0,-999.0,74,-99.99,,,-99.99,,2013-03-10 14:11:00,
2013-03-10 10:21:00,46.0,37.0,29.88,SE,145,2.0,-999.0,72,-99.99,,,-99.99,,2013-03-10 14:21:00,
2013-03-10 10:32:00,47.0,38.0,29.88,SSE,148,2.0,-999.0,70,-99.99,,,-99.99,,2013-03-10 14:32:00,
2013-03-10 10:41:00,47.0,38.0,29.88,SSE,148,2.0,-999.0,70,-99.99,,,-99.99,,2013-03-10 14:41:00,
2013-03-10 10:52:00,47.0,37.0,29.88,South,169,2.0,-999.0,69,-99.99,,,-99.99,,2013-03-10 14:52:00,
2013-03-10 11:01:00,48.0,38.0,29.87,ESE,119,2.0,-999.0,68,-99.99,,,-99.99,,2013-03-10 15:01:00,
2013-03-10 11:11:00,48.0,38.0,29.87,ESE,119,2.0,-999.0,68,-99.99,,,-99.99,,2013-03-10 15:11:00,
2013-03-10 11:21:00,49.0,38.0,29.88,SSE,164,3.0,-999.0,66,-99.99,,,-99.99,,2013-03-10 15:21:00,
2013-03-10 11:32:00,49.0,38.0,29.88,South,185,3.0,-999.0,66,-99.99,,,-99.99,,2013-03-10 15:32:00,
2013-03-10 11:42:00,49.0,38.0,29.88,South,185,3.0,-999.0,66,-99.99,,,-99.99,,2013-03-10 15:42:00,
2013-03-10 11:52:00,50.0,39.0,29.88,South,179,3.0,-999.0,65,-99.99,,,-99.99,,2013-03-10 15:52:00,
2013-03-10 12:01:00,50.0,38.0,29.88,South,169,4.0,-999.0,64,-99.99,,,-99.99,,2013-03-10 16:01:00,
2013-03-10 12:12:00,50.0,38.0,29.88,South,169,4.0,-999.0,64,-99.99,,,-99.99,,2013-03-10 16:12:00,
2013-03-10 12:21:00,51.0,39.0,29.88,SSW,199,3.0,-999.0,64,-99.99,,,-99.99,,2013-03-10 16:21:00,
2013-03-10 12:31:00,51.0,39.0,29.88,South,188,2.0,-999.0,63,-99.99,,,-99.99,,2013-03-10 16:31:00,
2013-03-10 12:41:00,51.0,39.0,29.88,South,188,2.0,-999.0,63,-99.99,,,-99.99,,2013-03-10 16:41:00,
2013-03-10 12:52:00,52.0,39.0,29.88,South,184,2.0,-999.0,62,-99.99,,,-99.99,,2013-03-10 16:52:00,
2013-03-10 13:01:00,52.0,39.0,29.87,SSE,155,2.0,-999.0,62,-99.99,,,-99.99,,2013-03-10 17:01:00,
2013-03-10 13:11:00,52.0,39.0,29.87,SSE,155,2.0,-999.0,62,-99.99,,,-99.99,,2013-03-10 17:11:00,
2013-03-10 13:21:00,53.0,40.0,29.87,SSE,150,3.0,-999.0,61,-99.99,,,-99.99,,2013-03-10 17:21:00,
2013-03-10 13:31:00,53.0,40.0,29.86,SSE,158,3.0,-999.0,62,-99.99,,,-99.99,,2013-03-10 17:31:00,
2013-03-10 13:41:00,53.0,40.0,29.86,SSE,158,3.0,-999.0,62,-99.99,,,-99.99,,2013-03-10 17:41:00,
2013-03-10 13:51:00,54.0,41.0,29.86,South,178,3.0,-999.0,61,-99.99,,,-99.99,,2013-03-10 17:51:00,
2013-03-10 14:01:00,55.0,41.0,29.85,SSE,161,2.0,-999.0,60,-99.99,,,-99.99,,2013-03-10 18:01:00,
2013-03-10 14:11:00,56.0,42.0,29.86,SSW,193,3.0,-999.0,60,-99.99,,,-99.99,,2013-03-10 18:11:00,
2013-03-10 14:21:00,56.0,42.0,29.86,SSW,193,3.0,-999.0,60,-99.99,,,-99.99,,2013-03-10 18:21:00,
2013-03-10 14:32:00,55.0,42.0,29.87,South,185,3.0,-999.0,61,-99.99,,,-99.99,,2013-03-10 18:32:00,
2013-03-10 14:41:00,55.0,42.0,29.87,South,185,3.0,-999.0,61,-99.99,,,-99.99,,2013-03-10 18:41:00,
2013-03-10 14:52:00,57.0,43.0,29.86,SE,130,1.0,-999.0,59,-99.99,,,-99.99,,2013-03-10 18:52:00,
2013-03-10 15:01:00,57.0,43.0,29.86,SE,137,2.0,-999.0,60,-99.99,,,-99.99,,2013-03-10 19:01:00,
2013-03-10 15:11:00,57.0,43.0,29.86,SE,137,2.0,-999.0,60,-99.99,,,-99.99,,2013-03-10 19:11:00,
2013-03-10 15:21:00,57.0,43.0,29.83,SE,143,2.0,-999.0,60,-99.99,,,-99.99,,2013-03-10 19:21:00,
2013-03-10 15:31:00,58.0,44.0,29.82,SSE,168,3.0,-999.0,60,-99.99,,,-99.99,,2013-03-10 19:31:00,
2013-03-10 15:42:00,58.0,44.0,29.82,SSE,168,3.0,-999.0,60,-99.99,,,-99.99,,2013-03-10 19:42:00,
2013-03-10 15:53:00,57.0,44.0,29.81,SSE,148,3.0,-999.0,61,-99.99,,,-99.99,,2013-03-10 19:53:00,
2013-03-10 16:02:00,58.0,45.0,29.81,SE,133,2.0,-999.0,61,-99.99,,,-99.99,,2013-03-10 20:02:00,
2013-03-10 16:12:00,58.0,45.0,29.81,SE,133,2.0,-999.0,61,-99.99,,,-99.99,,2013-03-10 20:12:00,
2013-03-10 16:22:00,58.0,45.0,29.80,ESE,123,3.0,-999.0,61,-99.99,,,-99.99,,2013-03-10 20:22:00,
2013-03-10 16:32:00,58.0,45.0,29.79,SE,137,3.0,-999.0,61,-99.99,,,-99.99,,2013-03-10 20:32:00,
2013-03-10 16:42:00,58.0,45.0,29.79,SE,137,3.0,-999.0,61,-99.99,,,-99.99,,2013-03-10 20:42:00,
2013-03-10 16:53:00,57.0,44.0,29.79,SE,143,3.0,-999.0,62,-99.99,,,-99.99,,2013-03-10 20:53:00,
2013-03-10 17:02:00,56.0,44.0,29.80,SE,128,2.0,-999.0,63,-99.99,,,-99.99,,2013-03-10 21:02:00,
2013-03-10 17:12:00,56.0,44.0,29.80,SE,128,2.0,-999.0,63,-99.99,,,-99.99,,2013-03-10 21:12:00,
2013-03-10 17:22:00,56.0,44.0,29.80,ESE,112,2.0,-999.0,64,-99.99,,,-99.99,,2013-03-10 21:22:00,
2013-03-10 17:32:00,55.0,43.0,29.80,SE,138,3.0,-999.0,64,-99.99,,,-99.99,,2013-03-10 21:32:00,
2013-03-10 17:42:00,55.0,43.0,29.80,SE,138,3.0,-999.0,64,-99.99,,,-99.99,,2013-03-10 21:42:00,
2013-03-10 17:53:00,56.0,44.0,29.79,East,97,2.0,-999.0,64,-99.99,,,-99.99,,2013-03-10 21:53:00,
2013-03-10 18:02:00,56.0,44.0,29.77,SE,127,3.0,-999.0,63,-99.99,,,-99.99,,2013-03-10 22:02:00,
2013-03-10 18:12:00,56.0,44.0,29.77,SE,127,3.0,-999.0,63,-99.99,,,-99.99,,2013-03-10 22:12:00,
2013-03-10 18:22:00,55.0,43.0,29.76,East,100,2.0,-999.0,63,-99.99,,,-99.99,,2013-03-10 22:22:00,
2013-03-10 18:32:00,55.0,43.0,29.76,SE,131,3.0,-999.0,63,-99.99,,,-99.99,,2013-03-10 22:32:00,
2013-03-10 18:42:00,55.0,43.0,29.76,SE,131,3.0,-999.0,63,-99.99,,,-99.99,,2013-03-10 22:42:00,
2013-03-10 18:53:00,55.0,42.0,29.76,SE,127,2.0,-999.0,62,-99.99,,,-99.99,,2013-03-10 22:53:00,
2013-03-10 19:02:00,56.0,43.0,29.76,ESE,119,2.0,-999.0,61,-99.99,,,-99.99,,2013-03-10 23:02:00,
2013-03-10 19:12:00,56.0,43.0,29.76,SE,130,3.0,-999.0,61,-99.99,,,-99.99,,2013-03-10 23:12:00,
2013-03-10 19:22:00,56.0,43.0,29.76,SE,130,3.0,-999.0,61,-99.99,,,-99.99,,2013-03-10 23:22:00,
2013-03-10 19:32:00,56.0,42.0,29.76,ESE,120,3.0,-999.0,60,-99.99,,,-99.99,,2013-03-10 23:32:00,
2013-03-10 19:42:00,56.0,42.0,29.76,ESE,120,3.0,-999.0,60,-99.99,,,-99.99,,2013-03-10 23:42:00,
2013-03-10 19:52:00,56.0,42.0,29.76,ESE,120,3.0,-999.0,60,-99.99,,,-99.99,,2013-03-10 23:52:00,
2013-03-10 20:02:00,55.0,41.0,29.76,ESE,104,3.0,-999.0,60,-99.99,,,-99.99,,2013-03-11 00:02:00,
2013-03-10 20:12:00,55.0,41.0,29.76,ESE,104,3.0,-999.0,60,-99.99,,,-99.99,,2013-03-11 00:12:00,
2013-03-10 20:22:00,55.0,43.0,29.77,SSE,165,2.0,-999.0,65,-99.99,,,-99.99,,2013-03-11 00:22:00,
2013-03-10 20:33:00,53.0,44.0,29.78,SSE,157,1.0,-999.0,72,-99.99,,,-99.99,,2013-03-11 00:33:00,
2013-03-10 20:42:00,53.0,44.0,29.78,SSE,157,1.0,-999.0,72,-99.99,,,-99.99,,2013-03-11 00:42:00,
2013-03-10 20:53:00,52.0,44.0,29.77,SE,133,1.0,-999.0,74,-99.99,,,-99.99,,2013-03-11 00:53:00,
2013-03-10 21:02:00,51.0,44.0,29.77,SE,131,1.0,-999.0,76,-99.99,,,-99.99,,2013-03-11 01:02:00,
2013-03-10 21:12:00,51.0,44.0,29.77,SE,131,1.0,-999.0,76,-99.99,,,-99.99,,2013-03-11 01:12:00,
2013-03-10 21:22:00,51.0,44.0,29.75,SE,131,1.0,-999.0,77,-99.99,,,-99.99,,2013-03-11 01:22:00,
2013-03-10 21:32:00,51.0,43.0,29.74,ESE,123,2.0,-999.0,74,-99.99,,,-99.99,,2013-03-11 01:32:00,
2013-03-10 21:42:00,51.0,43.0,29.74,ESE,123,2.0,-999.0,74,-99.99,,,-99.99,,2013-03-11 01:42:00,
2013-03-10 21:53:00,52.0,43.0,29.73,East,92,2.0,-999.0,71,-99.99,,,-99.99,,2013-03-11 01:53:00,
2013-03-10 22:02:00,52.0,42.0,29.73,SSE,147,4.0,-999.0,69,-99.99,,,-99.99,,2013-03-11 02:02:00,
2013-03-10 22:12:00,52.0,42.0,29.73,SSE,147,4.0,-999.0,69,-99.99,,,-99.99,,2013-03-11 02:12:00,
2013-03-10 22:22:00,53.0,43.0,29.72,SE,133,3.0,-999.0,68,-99.99,,,-99.99,,2013-03-11 02:22:00,
2013-03-10 22:32:00,53.0,42.0,29.73,SE,136,3.0,-999.0,67,-99.99,,,-99.99,,2013-03-11 02:32:00,
2013-03-10 22:42:00,53.0,42.0,29.73,SE,136,3.0,-999.0,67,-99.99,,,-99.99,,2013-03-11 02:42:00,
2013-03-10 22:52:00,54.0,42.0,29.73,SE,138,5.0,-999.0,64,-99.99,,,-99.99,,2013-03-11 02:52:00,
2013-03-10 23:02:00,54.0,42.0,29.73,SE,137,4.0,-999.0,63,-99.99,,,-99.99,,2013-03-11 03:02:00,
2013-03-10 23:12:00,54.0,42.0,29.73,SE,137,4.0,-999.0,63,-99.99,,,-99.99,,2013-03-11 03:12:00,
2013-03-10 23:22:00,54.0,42.0,29.73,SE,126,3.0,-999.0,63,-99.99,,,-99.99,,2013-03-11 03:22:00,
2013-03-10 23:32:00,54.0,42.0,29.72,SE,141,2.0,-999.0,64,-99.99,,,-99.99,,2013-03-11 03:32:00,
2013-03-10 23:42:00,54.0,42.0,29.72,SE,141,2.0,-999.0,64,-99.99,,,-99.99,,2013-03-11 03:42:00,
2013-03-10 23:53:00,53.0,42.0,29.72,SSE,158,1.0,-999.0,65,-99.99,,,-99.99,,2013-03-11 03:53:00,